Time,TemperatureF,DewpointF,PressureIn,WindDirection,WindDirectionDegrees,WindSpeedMPH,WindSpeedGustMPH,Humidity,HourlyPrecipIn,Conditions,Clouds,dailyrainin,SoftwareType,DateUTC
2013-09-01 00:03:00,-999.0,-99.9,-100.00,East,90,2.0,4.0,-999,-99.99,,,-99.99,,2013-09-01 04:03:00,
2013-09-01 00:25:00,74.0,69.0,-100.00,SE,135,2.0,6.0,85,0.00,,,-99.99,,2013-09-01 04:25:00,
2013-09-01 00:54:00,74.0,69.0,-100.00,SE,145,2.0,4.0,87,0.00,,,-99.99,,2013-09-01 04:54:00,
2013-09-01 01:23:00,74.0,69.0,-100.00,East,85,3.0,4.0,86,0.00,,,-99.99,,2013-09-01 05:23:00,
2013-09-01 01:52:00,74.0,69.0,-100.00,NE,40,7.0,10.0,86,0.00,,,-99.99,,2013-09-01 05:52:00,
2013-09-01 02:22:00,73.0,69.0,-100.00,NE,45,10.0,15.0,86,0.00,,,-99.99,,2013-09-01 06:22:00,
2013-09-01 02:52:00,72.0,69.0,-100.00,ENE,70,8.0,14.0,88,0.00,,,-99.99,,2013-09-01 06:52:00,
2013-09-01 03:22:00,71.0,69.0,-100.00,ENE,65,12.0,18.0,91,1.69,,,-99.99,,2013-09-01 07:22:00,
2013-09-01 03:52:00,71.0,69.0,-100.00,ENE,60,7.0,11.0,92,0.00,,,-99.99,,2013-09-01 07:52:00,
2013-09-01 04:22:00,71.0,69.0,-100.00,NE,50,6.0,11.0,93,0.00,,,-99.99,,2013-09-01 08:22:00,
2013-09-01 04:52:00,71.0,69.0,-100.00,ENE,65,6.0,8.0,94,0.00,,,-99.99,,2013-09-01 08:52:00,
2013-09-01 05:22:00,71.0,69.0,-100.00,ENE,65,6.0,9.0,94,0.00,,,-99.99,,2013-09-01 09:22:00,
2013-09-01 05:33:00,71.0,69.0,-100.00,ENE,65,6.0,9.0,94,0.00,,,-99.99,,2013-09-01 09:33:00,
2013-09-01 05:43:00,71.0,69.0,-100.00,ENE,65,6.0,9.0,94,0.00,,,-99.99,,2013-09-01 09:43:00,
2013-09-01 05:53:00,71.0,69.0,-100.00,North,-999,-999.0,-999.0,94,0.00,,,-99.99,,2013-09-01 09:53:00,
2013-09-01 06:23:00,71.0,69.0,-100.00,East,80,6.0,7.0,94,0.00,,,-99.99,,2013-09-01 10:23:00,
2013-09-01 06:53:00,72.0,70.0,-100.00,ESE,120,2.0,6.0,93,0.00,,,-99.99,,2013-09-01 10:53:00,
2013-09-01 07:22:00,72.0,70.0,-100.00,East,85,1.0,4.0,93,0.00,,,-99.99,,2013-09-01 11:22:00,
2013-09-01 07:52:00,72.0,70.0,-100.00,ENE,75,2.0,3.0,93,0.00,,,-99.99,,2013-09-01 11:52:00,
2013-09-01 08:22:00,72.0,70.0,-100.00,South,170,1.0,3.0,93,0.00,,,-99.99,,2013-09-01 12:22:00,
2013-09-01 08:32:00,72.0,70.0,-100.00,South,170,1.0,3.0,93,0.00,,,-99.99,,2013-09-01 12:32:00,
2013-09-01 08:52:00,72.0,70.0,-100.00,ENE,70,1.0,4.0,93,0.00,,,-99.99,,2013-09-01 12:52:00,
2013-09-01 09:21:00,73.0,71.0,-100.00,WSW,255,1.0,4.0,91,0.00,,,-99.99,,2013-09-01 13:21:00,
2013-09-01 09:52:00,74.0,70.0,-100.00,WNW,295,1.0,4.0,88,0.00,,,-99.99,,2013-09-01 13:52:00,
2013-09-01 10:22:00,74.0,70.0,-100.00,East,80,2.0,6.0,86,0.00,,,-99.99,,2013-09-01 14:22:00,
2013-09-01 10:52:00,76.0,69.0,-100.00,SE,140,3.0,6.0,81,0.00,,,-99.99,,2013-09-01 14:52:00,
2013-09-01 11:23:00,75.0,69.0,-100.00,South,170,3.0,9.0,81,0.00,,,-99.99,,2013-09-01 15:23:00,
2013-09-01 11:55:00,76.0,68.0,-100.00,South,185,6.0,11.0,78,0.00,,,-99.99,,2013-09-01 15:55:00,
2013-09-01 12:24:00,76.0,68.0,-100.00,SW,215,4.0,11.0,74,0.00,,,-99.99,,2013-09-01 16:24:00,
2013-09-01 12:53:00,77.0,68.0,-100.00,WSW,255,7.0,9.0,73,0.00,,,-99.99,,2013-09-01 16:53:00,
2013-09-01 13:23:00,78.0,68.0,-100.00,WSW,255,6.0,10.0,71,0.00,,,-99.99,,2013-09-01 17:23:00,
2013-09-01 13:52:00,78.0,68.0,-100.00,SSW,200,4.0,9.0,70,0.00,,,-99.99,,2013-09-01 17:52:00,
2013-09-01 14:22:00,80.0,68.0,-100.00,South,170,4.0,9.0,66,0.00,,,-99.99,,2013-09-01 18:22:00,
2013-09-01 14:52:00,79.0,68.0,-100.00,SSE,160,7.0,12.0,69,0.00,,,-99.99,,2013-09-01 18:52:00,
2013-09-01 15:22:00,79.0,68.0,-100.00,South,190,9.0,13.0,69,0.00,,,-99.99,,2013-09-01 19:22:00,
2013-09-01 15:52:00,79.0,68.0,-100.00,SSW,205,9.0,13.0,68,0.00,,,-99.99,,2013-09-01 19:52:00,
2013-09-01 16:22:00,78.0,68.0,-100.00,SW,220,12.0,17.0,72,0.00,,,-99.99,,2013-09-01 20:22:00,
2013-09-01 16:52:00,78.0,68.0,-100.00,SW,215,12.0,17.0,73,0.00,,,-99.99,,2013-09-01 20:52:00,
2013-09-01 17:22:00,78.0,68.0,-100.00,SSW,200,11.0,14.0,71,0.00,,,-99.99,,2013-09-01 21:22:00,
2013-09-01 17:55:00,79.0,68.0,-100.00,SSW,195,12.0,17.0,70,0.00,,,-99.99,,2013-09-01 21:55:00,
2013-09-01 18:04:00,79.0,68.0,-100.00,SSW,195,12.0,17.0,70,0.00,,,-99.99,,2013-09-01 22:04:00,
2013-09-01 18:24:00,79.0,68.0,-100.00,SSW,200,9.0,14.0,69,0.00,,,-99.99,,2013-09-01 22:24:00,
2013-09-01 18:53:00,79.0,69.0,-100.00,SSW,195,7.0,11.0,71,0.00,,,-99.99,,2013-09-01 22:53:00,
2013-09-01 19:23:00,79.0,69.0,-100.00,SSW,210,9.0,12.0,71,0.00,,,-99.99,,2013-09-01 23:23:00,
2013-09-01 19:53:00,78.0,69.0,-100.00,SSW,200,7.0,12.0,74,0.00,,,-99.99,,2013-09-01 23:53:00,
2013-09-01 20:22:00,78.0,69.0,-100.00,SSW,200,7.0,10.0,75,0.00,,,-99.99,,2013-09-02 00:22:00,
2013-09-01 20:52:00,77.0,70.0,-100.00,SSW,210,9.0,11.0,78,0.00,,,-99.99,,2013-09-02 00:52:00,
2013-09-01 21:22:00,76.0,69.0,-100.00,SSW,210,8.0,12.0,79,0.00,,,-99.99,,2013-09-02 01:22:00,
2013-09-01 21:52:00,76.0,70.0,-100.00,SSW,210,9.0,12.0,81,2.24,,,-99.99,,2013-09-02 01:52:00,
2013-09-01 22:02:00,76.0,70.0,-100.00,SSW,210,9.0,12.0,81,2.24,,,-99.99,,2013-09-02 02:02:00,
2013-09-01 22:12:00,76.0,70.0,-100.00,SSW,210,9.0,12.0,81,2.24,,,-99.99,,2013-09-02 02:12:00,
2013-09-01 22:22:00,75.0,70.0,-100.00,SSW,210,7.0,-999.0,82,0.00,,,-99.99,,2013-09-02 02:22:00,
2013-09-01 22:52:00,75.0,69.0,-100.00,SSW,200,6.0,11.0,82,0.00,,,-99.99,,2013-09-02 02:52:00,
2013-09-01 23:22:00,74.0,69.0,-100.00,SSW,195,7.0,10.0,84,0.00,,,-99.99,,2013-09-02 03:22:00,
2013-09-01 23:56:00,74.0,69.0,-100.00,SW,215,6.0,9.0,86,0.00,,,-99.99,,2013-09-02 03:56:00,